Puyallup, WA

4:17 PM PST on December 17, 2017 (GMT -0800)
Pierce County - Thun Field

Weather History for KPLU - December, 2013

Change the Weather History Date:

Wednesday, December 18, 2013

  Actual Average (KTCM) Record (KTCM)
Temperature  
Mean Temperature 38 °F -  
Max Temperature 46 °F 43 °F 55 °F (2004)
Min Temperature 30 °F 31 °F 12 °F (2005)
Degree Days  
Heating Degree Days 27    
Moisture  
Dew Point 38 °F    
Average Humidity 93    
Maximum Humidity 100    
Minimum Humidity 76    
Precipitation  
Precipitation 0.00 in - - ()
Sea Level Pressure  
Sea Level Pressure 30.09 in    
Wind  
Wind Speed 1 mph (WSW)    
Max Wind Speed 7 mph    
Max Gust Speed -    
Visibility 10 miles    
Events Rain    
Averages and records for this station are not official NWS values.
T = Trace of Precipitation, MM = Missing Value Source: NWS Daily Summary

Daily Weather History Graph

Daily Weather History Graph

Search for Another Location

Airport or City:

Trip Planner

Search our weather history database for the weather conditions in past years. The results will help you decide how hot, cold, wet, or windy it might be!

Date:

Astronomy

Dec. 18, 2013 Rise Set
Actual Time 7:50 AM PST 4:21 PM PST
Civil Twilight 7:15 AM PST 4:56 PM PST
Nautical Twilight 6:36 AM PST 5:35 PM PST
Astronomical Twilight 5:59 AM PST 6:12 PM PST
Moon 6:03 PM PST 8:28 AM PST
Length of Visible Light 9h 41m
Length of Day
8h 30m
Full, 98% of the Moon is Illuminated
Dec 18
Full
Dec 25
Last Quarter
Jan 1
New
Jan 7
First Quarter
Jan 15
Full

Hourly Weather History & Observations

Time (PST) Temp. Windchill Dew Point Humidity Pressure Visibility Wind Dir Wind Speed Gust Speed Precip Events Conditions
12:15 AM 46.4 °F - 44.6 °F 93% 30.13 in 10.0 mi Calm Calm - N/A   Unknown
12:35 AM 44.6 °F - 44.6 °F 100% 30.12 in 10.0 mi Calm Calm - N/A   Unknown
12:55 AM 44.6 °F 42.2 °F 44.6 °F 100% 30.12 in 10.0 mi WSW 4.6 mph - N/A   Unknown
1:15 AM 44.6 °F 41.4 °F 44.6 °F 100% 30.13 in 10.0 mi WSW 5.8 mph - N/A   Unknown
1:35 AM 44.6 °F 41.4 °F 42.8 °F 93% 30.13 in 10.0 mi WSW 5.8 mph - N/A   Unknown
1:55 AM 44.6 °F 40.7 °F 42.8 °F 93% 30.13 in 10.0 mi West 6.9 mph - N/A   Unknown
2:15 AM 44.6 °F 41.4 °F 42.8 °F 93% 30.13 in 10.0 mi SW 5.8 mph - N/A   Unknown
2:35 AM 44.6 °F - 42.8 °F 93% 30.14 in 10.0 mi Calm Calm - N/A   Unknown
2:55 AM 44.6 °F - 41.0 °F 87% 30.14 in 10.0 mi Calm Calm - N/A   Unknown
3:15 AM 44.6 °F - 41.0 °F 87% 30.13 in 10.0 mi Calm Calm - N/A   Unknown
3:35 AM 44.6 °F - 41.0 °F 87% 30.13 in 10.0 mi Calm Calm - N/A   Unknown
3:55 AM 44.6 °F - 41.0 °F 87% 30.12 in 10.0 mi Calm Calm - N/A   Unknown
4:15 AM 42.8 °F - 41.0 °F 93% 30.12 in 10.0 mi Calm Calm - N/A   Unknown
4:35 AM 42.8 °F - 41.0 °F 93% 30.12 in 10.0 mi Calm Calm - N/A   Unknown
4:55 AM 42.8 °F 40.1 °F 41.0 °F 93% 30.12 in 10.0 mi SW 4.6 mph - N/A   Unknown
5:15 AM 42.8 °F - 41.0 °F 93% 30.11 in 10.0 mi Calm Calm - N/A   Unknown
5:35 AM 42.8 °F - 41.0 °F 93% 30.11 in 10.0 mi Calm Calm - N/A   Unknown
5:55 AM 42.8 °F - 41.0 °F 93% 30.11 in 10.0 mi Calm Calm - N/A   Unknown
6:15 AM 42.8 °F - 41.0 °F 93% 30.10 in 10.0 mi Calm Calm - N/A   Unknown
6:35 AM 42.8 °F - 41.0 °F 93% 30.10 in 10.0 mi Calm Calm - N/A   Unknown
6:55 AM 42.8 °F - 41.0 °F 93% 30.10 in 10.0 mi Calm Calm - N/A   Unknown
7:15 AM 41.0 °F - 41.0 °F 100% 30.10 in 10.0 mi Calm Calm - N/A Rain Light Rain
7:35 AM 41.0 °F - 41.0 °F 100% 30.09 in 10.0 mi Calm Calm - N/A   Unknown
7:55 AM 41.0 °F - 41.0 °F 100% 30.09 in 10.0 mi Calm Calm - N/A Rain Light Rain
8:15 AM 41.0 °F - 41.0 °F 100% 30.09 in 10.0 mi Calm Calm - N/A Rain Light Rain
8:35 AM 41.0 °F 39.0 °F 41.0 °F 100% 30.09 in 10.0 mi SW 3.5 mph - N/A   Unknown
8:55 AM 41.0 °F 39.0 °F 41.0 °F 100% 30.09 in 10.0 mi SW 3.5 mph - N/A   Unknown
9:15 AM 41.0 °F - 41.0 °F 100% 30.09 in 10.0 mi Calm Calm - N/A   Unknown
9:35 AM 41.0 °F - 41.0 °F 100% 30.08 in 10.0 mi Calm Calm - N/A   Unknown
9:55 AM 41.0 °F 38.0 °F 39.2 °F 93% 30.09 in 10.0 mi West 4.6 mph - N/A   Unknown
10:15 AM 41.0 °F 38.0 °F 39.2 °F 93% 30.09 in 10.0 mi West 4.6 mph - N/A   Unknown
10:35 AM 41.0 °F - 39.2 °F 93% 30.08 in 10.0 mi Calm Calm - N/A   Unknown
10:55 AM 42.8 °F - 39.2 °F 87% 30.08 in 10.0 mi Calm Calm - N/A   Unknown
11:15 AM 42.8 °F 40.1 °F 39.2 °F 87% 30.07 in 10.0 mi WNW 4.6 mph - N/A   Unknown
11:35 AM 44.6 °F - 39.2 °F 81% 30.07 in 10.0 mi Calm Calm - N/A   Unknown
11:55 AM 44.6 °F - 39.2 °F 81% 30.06 in 10.0 mi Calm Calm - N/A   Unknown
12:15 PM 44.6 °F - 39.2 °F 81% 30.05 in 10.0 mi Calm Calm - N/A   Unknown
12:35 PM 44.6 °F - 37.4 °F 76% 30.05 in 10.0 mi Calm Calm - N/A   Unknown
12:55 PM 44.6 °F - 37.4 °F 76% 30.04 in 10.0 mi Calm Calm - N/A   Unknown
1:15 PM 44.6 °F - 37.4 °F 76% 30.03 in 10.0 mi Calm Calm - N/A   Unknown
1:35 PM 44.6 °F 42.2 °F 37.4 °F 76% 30.03 in 10.0 mi NE 4.6 mph - N/A   Unknown
1:55 PM 39.2 °F - 35.6 °F 87% 30.03 in 10.0 mi Calm Calm - N/A   Unknown
2:15 PM 39.2 °F - 35.6 °F 87% 30.03 in 10.0 mi Calm Calm - N/A   Unknown
2:35 PM 39.2 °F - 35.6 °F 87% 30.03 in 10.0 mi Calm Calm - N/A   Unknown
2:55 PM 39.2 °F - 35.6 °F 87% 30.04 in 10.0 mi Calm Calm - N/A   Unknown
3:15 PM 39.2 °F - 35.6 °F 87% 30.04 in 10.0 mi Calm Calm - N/A   Unknown
3:35 PM 39.2 °F - 35.6 °F 87% 30.06 in 10.0 mi Calm Calm - N/A Rain Light Rain
3:55 PM 37.4 °F - 35.6 °F 93% 30.05 in 10.0 mi Calm Calm - N/A   Unknown
4:15 PM 37.4 °F - 35.6 °F 93% 30.06 in 10.0 mi Calm Calm - N/A Rain Light Rain
4:35 PM 37.4 °F 34.9 °F 35.6 °F 93% 30.06 in 9.0 mi NE 3.5 mph - N/A Rain Light Rain
4:55 PM 37.4 °F - 35.6 °F 93% 30.06 in 10.0 mi Calm Calm - N/A   Unknown
5:15 PM 37.4 °F - 35.6 °F 93% 30.06 in 10.0 mi Calm Calm - N/A   Unknown
5:35 PM 37.4 °F - 35.6 °F 93% 30.06 in 10.0 mi Calm Calm - N/A Rain Light Rain
5:55 PM 37.4 °F - 35.6 °F 93% 30.06 in 10.0 mi Calm Calm - N/A   Unknown
6:15 PM 37.4 °F - 33.8 °F 87% 30.06 in 10.0 mi Calm Calm - N/A   Unknown
6:35 PM 35.6 °F - 35.6 °F 100% 30.06 in 10.0 mi Calm Calm - N/A   Unknown
6:55 PM 35.6 °F - 35.6 °F 100% 30.06 in 10.0 mi Calm Calm - N/A   Unknown
7:15 PM 35.6 °F - 35.6 °F 100% 30.07 in 10.0 mi Calm Calm - N/A   Unknown
7:35 PM 35.6 °F - 35.6 °F 100% 30.08 in 10.0 mi Calm Calm - N/A   Unknown
7:55 PM 33.8 °F - 33.8 °F 100% 30.08 in 10.0 mi Calm Calm - N/A   Unknown
8:15 PM 33.8 °F - 33.8 °F 100% 30.09 in 10.0 mi Calm Calm - N/A   Unknown
8:35 PM 35.6 °F - 35.6 °F 100% 30.09 in 10.0 mi Calm Calm - N/A   Unknown
8:55 PM 33.8 °F - 33.8 °F 100% 30.10 in 10.0 mi Calm Calm - N/A   Unknown
9:15 PM 32.0 °F - 32.0 °F 100% 30.11 in 10.0 mi Calm Calm - N/A   Unknown
9:35 PM 32.0 °F - 32.0 °F 100% 30.12 in 10.0 mi Calm Calm - N/A   Unknown
9:55 PM 32.0 °F - 32.0 °F 100% 30.14 in 10.0 mi Calm Calm - N/A   Unknown
10:15 PM 32.0 °F - 32.0 °F 100% 30.14 in 10.0 mi Calm Calm - N/A   Unknown
10:35 PM 32.0 °F - 32.0 °F 100% 30.15 in 10.0 mi Calm Calm - N/A   Unknown
10:55 PM 32.0 °F - 32.0 °F 100% 30.16 in 10.0 mi Calm Calm - N/A   Unknown
11:15 PM 30.2 °F - 30.2 °F 100% 30.15 in 10.0 mi Calm Calm - N/A   Unknown
11:35 PM 32.0 °F - 32.0 °F 100% 30.15 in 10.0 mi Calm Calm - N/A   Unknown
11:55 PM 32.0 °F - 32.0 °F 100% 30.14 in 10.0 mi Calm Calm - N/A   Unknown